Tracking 18840 objects as of 18-November-2017
HD Live streaming from Space Station
objects crossing your sky now

ALTAIR PATHFINDER

Track ALTAIR PATHFINDER now!
10-day predictions


NORAD ID: 42711
Int'l Code: 1998-067LS
Perigee: 394.5 km
Apogee: 400.6 km
Inclination: 51.6 °
Period: 92.4 minutes
Semi major axis: 6768 km
RCS: Unknown
Launch date: November 20, 1998
Source: United States (US)
Launch site: TYURATAM MISSILE AND SPACE COMPLEX (TTMTR)
aabbcc
Your satellite tracking list
Your tracking list is empty




NASA's NSSDC Master Catalog

Two Line Element Set (TLE):
1 42711U 98067LS  17322.14960794  .00016241  00000-0  21019-3 0  9990
2 42711  51.6387 347.6162 0004504  98.8234 261.3268 15.59055920 28495
Source of the keplerian elements: AFSPC